,,,PA_Meas_PMT16A,,PR_Meas_QMR101_102,,RH_Meas_QMH101,,SR_Meas_QMS101,,TA_Meas_QMH101,,GenWind,,GenWind,
date,time,status,PA,status,PR,status,RH,status,SR,status,TA,status,DirAvg,status,SpdAvg,
2011-05-08, 00:00:05,VALID,1009.53,VALID,0,VALID,104,VALID,0,VALID,24.2591,VALID,331,VALID,0,
2011-05-08, 00:01:05,VALID,1009.52,VALID,0,VALID,104,VALID,0,VALID,24.2981,VALID,331,VALID,0,
2011-05-08, 00:02:05,VALID,1009.54,VALID,0,VALID,104,VALID,0,VALID,24.2981,VALID,331,VALID,0,
2011-05-08, 00:03:05,VALID,1009.53,VALID,0,VALID,104,VALID,0,VALID,24.2786,VALID,331,VALID,0,
2011-05-08, 00:04:05,VALID,1009.55,VALID,0,VALID,104,VALID,0,VALID,24.3,VALID,331,VALID,0,
2011-05-08, 00:05:05,VALID,1009.53,VALID,0,VALID,104,VALID,0,VALID,24.2981,VALID,331,VALID,0,
2011-05-08, 00:06:05,VALID,1009.54,VALID,0,VALID,104,VALID,0,VALID,24.2981,VALID,331,VALID,0,
2011-05-08, 00:07:05,VALID,1009.51,VALID,0,VALID,104,VALID,0,VALID,24.2768,VALID,331,VALID,0,
2011-05-08, 00:08:05,VALID,1009.52,VALID,0,VALID,104,VALID,0,VALID,24.2786,VALID,331,VALID,0,
2011-05-08, 00:09:05,VALID,1009.52,VALID,0,VALID,103.985,VALID,0,VALID,24.2396,VALID,331,VALID,0,
2011-05-08, 00:10:05,VALID,1009.51,VALID,0,VALID,103.992,VALID,0,VALID,24.2396,VALID,331,VALID,0,
2011-05-08, 00:11:05,VALID,1009.45,VALID,0,VALID,104,VALID,0,VALID,24.2396,VALID,331,VALID,0,
2011-05-08, 00:12:05,VALID,1009.43,VALID,0,VALID,104,VALID,0,VALID,24.2396,VALID,331,VALID,0,
2011-05-08, 00:13:05,VALID,1009.39,VALID,0,VALID,104,VALID,0,VALID,24.2591,VALID,333,VALID,0.215625,
2011-05-08, 00:14:05,VALID,1009.38,VALID,0,VALID,104,VALID,0,VALID,24.2396,VALID,338,VALID,0,
2011-05-08, 00:15:05,VALID,1009.37,VALID,0,VALID,104,VALID,0,VALID,24.2396,VALID,338,VALID,0,
2011-05-08, 00:16:05,VALID,1009.39,VALID,0,VALID,104,VALID,0,VALID,24.2396,VALID,338,VALID,0,
2011-05-08, 00:17:05,VALID,1009.37,VALID,0,VALID,104,VALID,0,VALID,24.2183,VALID,338,VALID,0,
2011-05-08, 00:18:05,VALID,1009.36,VALID,0,VALID,103.992,VALID,0,VALID,24.2396,VALID,338,VALID,0,
2011-05-08, 00:19:05,VALID,1009.33,VALID,0,VALID,103.985,VALID,0,VALID,24.2202,VALID,338,VALID,0,
2011-05-08, 00:20:05,VALID,1009.28,VALID,0,VALID,103.97,VALID,0,VALID,24.2007,VALID,341,VALID,0,
2011-05-08, 00:21:04,VALID,1009.27,VALID,0,VALID,103.977,VALID,0,VALID,24.2007,VALID,341,VALID,0,
2011-05-08, 00:22:04,VALID,1009.28,VALID,0,VALID,104,VALID,0,VALID,24.2007,VALID,341,VALID,0,
2011-05-08, 00:23:04,VALID,1009.27,VALID,0,VALID,104,VALID,0,VALID,24.2007,VALID,341,VALID,0,
2011-05-08, 00:24:04,VALID,1009.27,VALID,0,VALID,104,VALID,0,VALID,24.1812,VALID,341,VALID,0,
2011-05-08, 00:25:04,VALID,1009.21,VALID,0,VALID,104,VALID,0,VALID,24.1599,VALID,341,VALID,0,
2011-05-08, 00:26:04,VALID,1009.19,VALID,0,VALID,104,VALID,0,VALID,24.1422,VALID,341,VALID,0,
2011-05-08, 00:27:04,VALID,1009.13,VALID,0,VALID,104,VALID,0,VALID,24.1227,VALID,341,VALID,0,
2011-05-08, 00:28:04,VALID,1009.09,VALID,0,VALID,104,VALID,0,VALID,24.1032,VALID,341,VALID,0,
2011-05-08, 00:29:04,VALID,1009.07,VALID,0,VALID,104,VALID,0,VALID,24.0819,VALID,341,VALID,0,
2011-05-08, 00:30:04,VALID,1009.06,VALID,0,VALID,104,VALID,0,VALID,24.0837,VALID,341,VALID,0,
2011-05-08, 00:31:04,VALID,1009.08,VALID,0,VALID,104,VALID,0,VALID,24.0643,VALID,341,VALID,0,
2011-05-08, 00:32:04,VALID,1009.09,VALID,0,VALID,104,VALID,0,VALID,24.0448,VALID,341,VALID,0.096875,
2011-05-08, 00:33:04,VALID,1009.06,VALID,0,VALID,104,VALID,0,VALID,24.0837,VALID,341,VALID,0,
2011-05-08, 00:34:04,VALID,1009.03,VALID,0,VALID,104,VALID,0,VALID,24.0837,VALID,341,VALID,0,
2011-05-08, 00:35:04,VALID,1008.99,VALID,0,VALID,104,VALID,0,VALID,24.0837,VALID,341,VALID,0,
2011-05-08, 00:36:04,VALID,1008.98,VALID,0,VALID,104,VALID,0,VALID,24.0643,VALID,341,VALID,0,
2011-05-08, 00:37:04,VALID,1008.97,VALID,0,VALID,104,VALID,0,VALID,24.0643,VALID,341,VALID,0,
2011-05-08, 00:38:04,VALID,1008.97,VALID,0,VALID,104,VALID,0,VALID,24.0448,VALID,341,VALID,0,
2011-05-08, 00:39:04,VALID,1008.97,VALID,0,VALID,104,VALID,0,VALID,24.0448,VALID,341,VALID,0,
2011-05-08, 00:40:04,VALID,1008.97,VALID,0,VALID,104,VALID,0,VALID,24.0643,VALID,341,VALID,0,
2011-05-08, 00:41:04,VALID,1008.96,VALID,0,VALID,104,VALID,0,VALID,24.0837,VALID,341,VALID,0,
2011-05-08, 00:42:04,VALID,1008.94,VALID,0,VALID,104,VALID,0,VALID,24.0624,VALID,341,VALID,0,
2011-05-08, 00:43:04,VALID,1008.94,VALID,0,VALID,104,VALID,0,VALID,24.0624,VALID,349,VALID,0.277734,
2011-05-08, 00:44:04,VALID,1008.96,VALID,0,VALID,104,VALID,0,VALID,24.0819,VALID,351,VALID,0,
2011-05-08, 00:45:04,VALID,1008.94,VALID,0,VALID,104,VALID,0,VALID,24.0819,VALID,354,VALID,0.00585938,
2011-05-08, 00:46:04,VALID,1008.94,VALID,0,VALID,104,VALID,0,VALID,24.1032,VALID,354,VALID,0,
2011-05-08, 00:47:04,VALID,1008.92,VALID,0,VALID,104,VALID,0,VALID,24.0837,VALID,354,VALID,0,
2011-05-08, 00:48:04,VALID,1008.87,VALID,0,VALID,104,VALID,0,VALID,24.0429,VALID,354,VALID,0,
2011-05-08, 00:49:04,VALID,1008.86,VALID,0,VALID,104,VALID,0.105969,VALID,24.0235,VALID,354,VALID,0,
2011-05-08, 00:50:04,VALID,1008.86,VALID,0,VALID,104,VALID,0,VALID,24.0429,VALID,354,VALID,0,
2011-05-08, 00:51:04,VALID,1008.85,VALID,0,VALID,104,VALID,0,VALID,24.0429,VALID,354,VALID,0,
2011-05-08, 00:52:04,VALID,1008.83,VALID,0,VALID,104,VALID,0,VALID,24.0448,VALID,354,VALID,0,
2011-05-08, 00:53:04,VALID,1008.83,VALID,0,VALID,104,VALID,0.105969,VALID,24.004,VALID,354,VALID,0,
2011-05-08, 00:54:04,VALID,1008.81,VALID,0,VALID,104,VALID,0.105969,VALID,24.004,VALID,354,VALID,0,
2011-05-08, 00:55:04,VALID,1008.79,VALID,0,VALID,104,VALID,0,VALID,24.004,VALID,354,VALID,0.0664063,
2011-05-08, 00:56:04,VALID,1008.73,VALID,0,VALID,104,VALID,0,VALID,24.0235,VALID,354,VALID,0,
2011-05-08, 00:57:04,VALID,1008.69,VALID,0,VALID,104,VALID,0,VALID,24.0448,VALID,354,VALID,0,
2011-05-08, 00:58:04,VALID,1008.67,VALID,0,VALID,104,VALID,0,VALID,24.004,VALID,354,VALID,0,
2011-05-08, 00:59:04,VALID,1008.63,VALID,0,VALID,104,VALID,0,VALID,24.0253,VALID,354,VALID,0,
2011-05-08, 01:00:04,VALID,1008.58,VALID,0,VALID,104,VALID,0,VALID,24.0253,VALID,354,VALID,0,
2011-05-08, 01:01:04,VALID,1008.59,VALID,0,VALID,104,VALID,0.105969,VALID,24.0058,VALID,354,VALID,0,
2011-05-08, 01:02:04,VALID,1008.54,VALID,0,VALID,104,VALID,0,VALID,23.9863,VALID,354,VALID,0,
2011-05-08, 01:03:04,VALID,1008.57,VALID,0,VALID,104,VALID,0,VALID,23.9668,VALID,354,VALID,0,
2011-05-08, 01:04:04,VALID,1008.54,VALID,0,VALID,104,VALID,0,VALID,23.9455,VALID,354,VALID,0,
2011-05-08, 01:05:04,VALID,1008.56,VALID,0,VALID,104,VALID,0,VALID,23.9473,VALID,354,VALID,0,
2011-05-08, 01:06:04,VALID,1008.56,VALID,0,VALID,104,VALID,0,VALID,23.926,VALID,354,VALID,0,
2011-05-08, 01:07:04,VALID,1008.6,VALID,0,VALID,104,VALID,0,VALID,23.9473,VALID,354,VALID,0,
2011-05-08, 01:08:04,VALID,1008.62,VALID,0,VALID,104,VALID,0.105969,VALID,23.9473,VALID,354,VALID,0,
2011-05-08, 01:09:04,VALID,1008.57,VALID,0,VALID,104,VALID,0,VALID,23.9668,VALID,354,VALID,0,
2011-05-08, 01:10:04,VALID,1008.57,VALID,0,VALID,104,VALID,0.105969,VALID,23.9065,VALID,354,VALID,0,
2011-05-08, 01:11:04,VALID,1008.53,VALID,0,VALID,104,VALID,0,VALID,23.926,VALID,354,VALID,0,
2011-05-08, 01:12:04,VALID,1008.54,VALID,0,VALID,104,VALID,0,VALID,23.9065,VALID,354,VALID,0,
2011-05-08, 01:13:04,VALID,1008.53,VALID,0,VALID,104,VALID,0.105969,VALID,23.9065,VALID,354,VALID,0,
2011-05-08, 01:14:04,VALID,1008.56,VALID,0,VALID,104,VALID,0.105969,VALID,23.9084,VALID,354,VALID,0,
2011-05-08, 01:15:04,VALID,1008.55,VALID,0,VALID,104,VALID,0.105969,VALID,23.8676,VALID,354,VALID,0,
2011-05-08, 01:16:04,VALID,1008.55,VALID,0,VALID,104,VALID,0.105969,VALID,23.8676,VALID,354,VALID,0,
2011-05-08, 01:17:04,VALID,1008.53,VALID,0,VALID,104,VALID,0,VALID,23.8889,VALID,354,VALID,0,
2011-05-08, 01:18:04,VALID,1008.51,VALID,0,VALID,104,VALID,0,VALID,23.8694,VALID,354,VALID,0,
2011-05-08, 01:19:04,VALID,1008.49,VALID,0,VALID,104,VALID,0,VALID,23.8676,VALID,354,VALID,0,
2011-05-08, 01:20:04,VALID,1008.45,VALID,0,VALID,104,VALID,0,VALID,23.8676,VALID,354,VALID,0,
2011-05-08, 01:21:04,VALID,1008.42,VALID,0,VALID,104,VALID,0,VALID,23.8481,VALID,354,VALID,0,
2011-05-08, 01:22:04,VALID,1008.4,VALID,0,VALID,104,VALID,0,VALID,23.8499,VALID,354,VALID,0,
2011-05-08, 01:23:04,VALID,1008.38,VALID,0,VALID,104,VALID,0.105969,VALID,23.8286,VALID,354,VALID,0,
2011-05-08, 01:24:04,VALID,1008.39,VALID,0,VALID,104,VALID,0,VALID,23.8286,VALID,354,VALID,0,
2011-05-08, 01:25:04,VALID,1008.36,VALID,0,VALID,104,VALID,0.105969,VALID,23.8091,VALID,354,VALID,0,
2011-05-08, 01:26:04,VALID,1008.36,VALID,0,VALID,104,VALID,0,VALID,23.8286,VALID,354,VALID,0,
2011-05-08, 01:27:04,VALID,1008.34,VALID,0,VALID,104,VALID,0,VALID,23.8286,VALID,354,VALID,0,
2011-05-08, 01:28:04,VALID,1008.32,VALID,0,VALID,104,VALID,0.105969,VALID,23.8286,VALID,354,VALID,0,
2011-05-08, 01:29:04,VALID,1008.33,VALID,0,VALID,104,VALID,0.105969,VALID,23.8286,VALID,354,VALID,0,
2011-05-08, 01:30:04,VALID,1008.31,VALID,0,VALID,104,VALID,0.105969,VALID,23.8091,VALID,354,VALID,0,
2011-05-08, 01:31:04,VALID,1008.32,VALID,0,VALID,104,VALID,0.105969,VALID,23.7896,VALID,354,VALID,0,
2011-05-08, 01:32:04,VALID,1008.31,VALID,0,VALID,104,VALID,0.105969,VALID,23.772,VALID,354,VALID,0,
2011-05-08, 01:33:04,VALID,1008.34,VALID,0,VALID,104,VALID,0,VALID,23.772,VALID,354,VALID,0,
2011-05-08, 01:34:04,VALID,1008.33,VALID,0,VALID,104,VALID,0,VALID,23.7507,VALID,354,VALID,0,
2011-05-08, 01:35:04,VALID,1008.34,VALID,0,VALID,104,VALID,0,VALID,23.7701,VALID,354,VALID,0,
2011-05-08, 01:36:04,VALID,1008.33,VALID,0,VALID,104,VALID,0.105969,VALID,23.7701,VALID,354,VALID,0,
2011-05-08, 01:37:04,VALID,1008.33,VALID,0,VALID,104,VALID,0.105969,VALID,23.7701,VALID,354,VALID,0,
2011-05-08, 01:38:04,VALID,1008.32,VALID,0,VALID,104,VALID,0.105969,VALID,23.7507,VALID,354,VALID,0,
2011-05-08, 01:39:04,VALID,1008.26,VALID,0,VALID,104,VALID,0.105969,VALID,23.7507,VALID,354,VALID,0,
2011-05-08, 01:40:04,VALID,1008.28,VALID,0,VALID,104,VALID,0,VALID,23.733,VALID,354,VALID,0,
2011-05-08, 01:41:04,VALID,1008.24,VALID,0,VALID,104,VALID,0,VALID,23.7135,VALID,354,VALID,0,
2011-05-08, 01:42:04,VALID,1008.25,VALID,0,VALID,104,VALID,0,VALID,23.6709,VALID,354,VALID,0,
2011-05-08, 01:43:04,VALID,1008.26,VALID,0,VALID,104,VALID,0.105969,VALID,23.7117,VALID,354,VALID,0,
2011-05-08, 01:44:04,VALID,1008.27,VALID,0,VALID,104,VALID,0,VALID,23.7117,VALID,354,VALID,0,
2011-05-08, 01:45:04,VALID,1008.25,VALID,0,VALID,104,VALID,0,VALID,23.7117,VALID,354,VALID,0,
2011-05-08, 01:46:04,VALID,1008.22,VALID,0,VALID,104,VALID,0.105969,VALID,23.7312,VALID,354,VALID,0,
2011-05-08, 01:47:04,VALID,1008.21,VALID,0,VALID,104,VALID,0.105969,VALID,23.7312,VALID,354,VALID,0,
2011-05-08, 01:48:04,VALID,1008.18,VALID,0,VALID,104,VALID,0,VALID,23.6922,VALID,354,VALID,0,
2011-05-08, 01:49:04,VALID,1008.17,VALID,0,VALID,104,VALID,0,VALID,23.6727,VALID,354,VALID,0,
2011-05-08, 01:50:04,VALID,1008.16,VALID,0,VALID,104,VALID,0,VALID,23.6532,VALID,354,VALID,0,
2011-05-08, 01:51:04,VALID,1008.18,VALID,0,VALID,104,VALID,0.105969,VALID,23.6338,VALID,354,VALID,0,
2011-05-08, 01:52:04,VALID,1008.21,VALID,0,VALID,104,VALID,0,VALID,23.6161,VALID,354,VALID,0,
2011-05-08, 01:53:04,VALID,1008.22,VALID,0,VALID,104,VALID,0,VALID,23.6143,VALID,354,VALID,0,
2011-05-08, 01:54:04,VALID,1008.23,VALID,0,VALID,104,VALID,0,VALID,23.655,VALID,354,VALID,0,
2011-05-08, 01:55:04,VALID,1008.19,VALID,0,VALID,104,VALID,0.105969,VALID,23.6338,VALID,354,VALID,0,
2011-05-08, 01:56:04,VALID,1008.15,VALID,0,VALID,104,VALID,0,VALID,23.655,VALID,354,VALID,0,
2011-05-08, 01:57:04,VALID,1008.13,VALID,0,VALID,104,VALID,0,VALID,23.6356,VALID,354,VALID,0,
2011-05-08, 01:58:04,VALID,1008.07,VALID,0,VALID,104,VALID,0.105969,VALID,23.593,VALID,354,VALID,0,
2011-05-08, 01:59:04,VALID,1008.09,VALID,0,VALID,104,VALID,0,VALID,23.6161,VALID,354,VALID,0,
2011-05-08, 02:00:04,VALID,1008.02,VALID,0,VALID,104,VALID,0,VALID,23.5948,VALID,354,VALID,0,
2011-05-08, 02:01:04,VALID,1008.01,VALID,0,VALID,104,VALID,0.105969,VALID,23.5948,VALID,354,VALID,0,
2011-05-08, 02:02:04,VALID,1008,VALID,0,VALID,104,VALID,0,VALID,23.5948,VALID,354,VALID,0,
2011-05-08, 02:03:04,VALID,1007.97,VALID,0,VALID,104,VALID,0,VALID,23.5771,VALID,354,VALID,0,
2011-05-08, 02:04:04,VALID,1007.97,VALID,0,VALID,104,VALID,0.105969,VALID,23.5558,VALID,354,VALID,0,
2011-05-08, 02:05:04,VALID,1007.95,VALID,0,VALID,104,VALID,0,VALID,23.5771,VALID,354,VALID,0,
2011-05-08, 02:06:04,VALID,1007.94,VALID,0,VALID,104,VALID,0,VALID,23.5363,VALID,354,VALID,0,
2011-05-08, 02:07:04,VALID,1007.94,VALID,0,VALID,104,VALID,0,VALID,23.5363,VALID,354,VALID,0,
2011-05-08, 02:08:04,VALID,1007.9,VALID,0,VALID,104,VALID,0,VALID,23.5576,VALID,354,VALID,0,
2011-05-08, 02:09:04,VALID,1007.92,VALID,0,VALID,104,VALID,0.105969,VALID,23.5363,VALID,354,VALID,0,
2011-05-08, 02:10:04,VALID,1007.88,VALID,0,VALID,104,VALID,0.105969,VALID,23.5363,VALID,354,VALID,0,
2011-05-08, 02:11:04,VALID,1007.87,VALID,0,VALID,104,VALID,0,VALID,23.5363,VALID,354,VALID,0,
2011-05-08, 02:12:04,VALID,1007.85,VALID,0,VALID,104,VALID,0,VALID,23.4779,VALID,354,VALID,0,
2011-05-08, 02:13:04,VALID,1007.82,VALID,0,VALID,104,VALID,0,VALID,23.4974,VALID,354,VALID,0,
2011-05-08, 02:14:04,VALID,1007.83,VALID,0,VALID,104,VALID,0.105969,VALID,23.4779,VALID,354,VALID,0,
2011-05-08, 02:15:04,VALID,1007.82,VALID,0,VALID,104,VALID,0,VALID,23.4779,VALID,354,VALID,0,
2011-05-08, 02:16:04,VALID,1007.82,VALID,0,VALID,104,VALID,0,VALID,23.4779,VALID,354,VALID,0,
2011-05-08, 02:17:04,VALID,1007.82,VALID,0,VALID,104,VALID,0.105969,VALID,23.4779,VALID,354,VALID,0,
2011-05-08, 02:18:04,VALID,1007.8,VALID,0,VALID,104,VALID,0,VALID,23.4779,VALID,354,VALID,0,
2011-05-08, 02:19:04,VALID,1007.82,VALID,0,VALID,104,VALID,0,VALID,23.5186,VALID,354,VALID,0,
2011-05-08, 02:20:04,VALID,1007.84,VALID,0,VALID,104,VALID,0,VALID,23.4992,VALID,354,VALID,0,
2011-05-08, 02:21:04,VALID,1007.83,VALID,0,VALID,104,VALID,0,VALID,23.4779,VALID,354,VALID,0,
2011-05-08, 02:22:04,VALID,1007.83,VALID,0,VALID,104,VALID,0,VALID,23.4779,VALID,354,VALID,0,
2011-05-08, 02:23:04,VALID,1007.83,VALID,0,VALID,104,VALID,0,VALID,23.4992,VALID,354,VALID,0,
2011-05-08, 02:24:04,VALID,1007.84,VALID,0,VALID,104,VALID,0.105969,VALID,23.4779,VALID,354,VALID,0,
2011-05-08, 02:25:04,VALID,1007.81,VALID,0,VALID,104,VALID,0,VALID,23.4602,VALID,354,VALID,0,
2011-05-08, 02:26:04,VALID,1007.83,VALID,0,VALID,104,VALID,0,VALID,23.4815,VALID,354,VALID,0,
2011-05-08, 02:27:04,VALID,1007.82,VALID,0,VALID,104,VALID,0,VALID,23.5009,VALID,354,VALID,0,
2011-05-08, 02:28:04,VALID,1007.86,VALID,0,VALID,104,VALID,0,VALID,23.4797,VALID,354,VALID,0,
2011-05-08, 02:29:04,VALID,1007.85,VALID,0,VALID,104,VALID,0,VALID,23.4815,VALID,354,VALID,0,
2011-05-08, 02:30:04,VALID,1007.85,VALID,0,VALID,104,VALID,0,VALID,23.4602,VALID,354,VALID,0,
2011-05-08, 02:31:04,VALID,1007.85,VALID,0,VALID,104,VALID,0,VALID,23.4407,VALID,354,VALID,0,
2011-05-08, 02:32:04,VALID,1007.87,VALID,0,VALID,104,VALID,0,VALID,23.4602,VALID,354,VALID,0,
2011-05-08, 02:33:04,VALID,1007.87,VALID,0,VALID,104,VALID,0,VALID,23.462,VALID,354,VALID,0,
2011-05-08, 02:34:04,VALID,1007.91,VALID,0,VALID,104,VALID,0,VALID,23.462,VALID,354,VALID,0,
2011-05-08, 02:35:04,VALID,1007.91,VALID,0,VALID,104,VALID,0,VALID,23.462,VALID,354,VALID,0,
2011-05-08, 02:36:04,VALID,1007.95,VALID,0,VALID,104,VALID,0,VALID,23.462,VALID,354,VALID,0,
2011-05-08, 02:37:04,VALID,1007.94,VALID,0,VALID,104,VALID,0,VALID,23.4602,VALID,354,VALID,0,
2011-05-08, 02:38:04,VALID,1007.95,VALID,0,VALID,104,VALID,0,VALID,23.4602,VALID,354,VALID,0,
2011-05-08, 02:39:04,VALID,1007.94,VALID,0,VALID,104,VALID,0,VALID,23.4815,VALID,354,VALID,0,
2011-05-08, 02:40:04,VALID,1007.94,VALID,0,VALID,104,VALID,0,VALID,23.4389,VALID,354,VALID,0,
2011-05-08, 02:41:04,VALID,1007.93,VALID,0,VALID,104,VALID,0,VALID,23.4797,VALID,354,VALID,0,
2011-05-08, 02:42:04,VALID,1007.94,VALID,0,VALID,104,VALID,0,VALID,23.4584,VALID,354,VALID,0,
2011-05-08, 02:43:04,VALID,1007.94,VALID,0,VALID,104,VALID,0,VALID,23.4584,VALID,354,VALID,0,
2011-05-08, 02:44:04,VALID,1007.98,VALID,0,VALID,104,VALID,0,VALID,23.4602,VALID,354,VALID,0,
2011-05-08, 02:45:04,VALID,1007.94,VALID,0,VALID,104,VALID,0,VALID,23.4584,VALID,354,VALID,0,
2011-05-08, 02:46:04,VALID,1007.94,VALID,0,VALID,104,VALID,0,VALID,23.4797,VALID,354,VALID,0,
2011-05-08, 02:47:04,VALID,1007.95,VALID,0,VALID,104,VALID,0,VALID,23.4584,VALID,354,VALID,0,
2011-05-08, 02:48:04,VALID,1007.93,VALID,0,VALID,104,VALID,0,VALID,23.4389,VALID,354,VALID,0,
2011-05-08, 02:49:04,VALID,1007.95,VALID,0,VALID,104,VALID,0,VALID,23.4602,VALID,354,VALID,0,
2011-05-08, 02:50:04,VALID,1007.93,VALID,0,VALID,104,VALID,0,VALID,23.4407,VALID,354,VALID,0,
2011-05-08, 02:51:04,VALID,1007.92,VALID,0,VALID,104,VALID,0,VALID,23.4389,VALID,354,VALID,0,
2011-05-08, 02:52:04,VALID,1007.93,VALID,0,VALID,104,VALID,0,VALID,23.4602,VALID,354,VALID,0,
2011-05-08, 02:53:04,VALID,1007.91,VALID,0,VALID,104,VALID,0,VALID,23.4602,VALID,354,VALID,0,
2011-05-08, 02:54:04,VALID,1007.88,VALID,0,VALID,104,VALID,0,VALID,23.4602,VALID,354,VALID,0,
2011-05-08, 02:55:04,VALID,1007.89,VALID,0,VALID,104,VALID,0,VALID,23.4602,VALID,354,VALID,0,
2011-05-08, 02:56:04,VALID,1007.9,VALID,0,VALID,104,VALID,0,VALID,23.4389,VALID,354,VALID,0,
2011-05-08, 02:57:04,VALID,1007.91,VALID,0,VALID,104,VALID,0,VALID,23.4602,VALID,354,VALID,0,
2011-05-08, 02:58:04,VALID,1007.9,VALID,0,VALID,104,VALID,0,VALID,23.4602,VALID,354,VALID,0,
2011-05-08, 02:59:04,VALID,1007.89,VALID,0,VALID,104,VALID,0,VALID,23.4602,VALID,354,VALID,0,
2011-05-08, 03:00:04,VALID,1007.91,VALID,0,VALID,104,VALID,0,VALID,23.4797,VALID,354,VALID,0,
2011-05-08, 03:01:04,VALID,1007.88,VALID,0,VALID,104,VALID,0,VALID,23.4779,VALID,354,VALID,0,
2011-05-08, 03:02:04,VALID,1007.87,VALID,0,VALID,104,VALID,0,VALID,23.4797,VALID,354,VALID,0,
2011-05-08, 03:03:04,VALID,1007.88,VALID,0,VALID,104,VALID,0,VALID,23.4797,VALID,354,VALID,0,
2011-05-08, 03:04:04,VALID,1007.89,VALID,0,VALID,104,VALID,0,VALID,23.4584,VALID,354,VALID,0,
2011-05-08, 03:05:04,VALID,1007.9,VALID,0,VALID,104,VALID,0,VALID,23.4992,VALID,354,VALID,0,
2011-05-08, 03:06:04,VALID,1007.91,VALID,0,VALID,104,VALID,0.105969,VALID,23.4797,VALID,354,VALID,0,
2011-05-08, 03:07:04,VALID,1007.89,VALID,0,VALID,104,VALID,0,VALID,23.4992,VALID,354,VALID,0,
2011-05-08, 03:08:04,VALID,1007.88,VALID,0,VALID,104,VALID,0,VALID,23.4779,VALID,354,VALID,0,
2011-05-08, 03:09:04,VALID,1007.91,VALID,0,VALID,104,VALID,0,VALID,23.4992,VALID,354,VALID,0,
2011-05-08, 03:10:04,VALID,1007.89,VALID,0,VALID,104,VALID,0.105969,VALID,23.4992,VALID,354,VALID,0,
2011-05-08, 03:11:04,VALID,1007.91,VALID,0,VALID,104,VALID,0,VALID,23.4974,VALID,354,VALID,0,
2011-05-08, 03:12:04,VALID,1007.9,VALID,0,VALID,104,VALID,0.105969,VALID,23.4974,VALID,354,VALID,0,
2011-05-08, 03:13:04,VALID,1007.87,VALID,0,VALID,104,VALID,0.105969,VALID,23.5186,VALID,354,VALID,0,
2011-05-08, 03:14:04,VALID,1007.89,VALID,0,VALID,104,VALID,0,VALID,23.4779,VALID,354,VALID,0,
2011-05-08, 03:15:04,VALID,1007.89,VALID,0,VALID,104,VALID,0.105969,VALID,23.4779,VALID,354,VALID,0,
2011-05-08, 03:16:04,VALID,1007.9,VALID,0,VALID,104,VALID,0,VALID,23.4779,VALID,354,VALID,0,
2011-05-08, 03:17:04,VALID,1007.86,VALID,0,VALID,104,VALID,0.105969,VALID,23.4779,VALID,354,VALID,0,
2011-05-08, 03:18:04,VALID,1007.86,VALID,0,VALID,104,VALID,0,VALID,23.4779,VALID,354,VALID,0,
2011-05-08, 03:19:04,VALID,1007.86,VALID,0,VALID,104,VALID,0.105969,VALID,23.4992,VALID,354,VALID,0,
2011-05-08, 03:20:04,VALID,1007.88,VALID,0,VALID,104,VALID,0,VALID,23.4779,VALID,354,VALID,0,
2011-05-08, 03:21:04,VALID,1007.87,VALID,0,VALID,104,VALID,0,VALID,23.4992,VALID,354,VALID,0,
2011-05-08, 03:22:04,VALID,1007.84,VALID,0,VALID,104,VALID,0.105969,VALID,23.4974,VALID,354,VALID,0,
2011-05-08, 03:23:04,VALID,1007.83,VALID,0,VALID,104,VALID,0,VALID,23.4779,VALID,354,VALID,0,
2011-05-08, 03:24:04,VALID,1007.83,VALID,0,VALID,104,VALID,0,VALID,23.4974,VALID,354,VALID,0,
2011-05-08, 03:25:04,VALID,1007.84,VALID,0,VALID,104,VALID,0,VALID,23.5204,VALID,354,VALID,0,
2011-05-08, 03:26:04,VALID,1007.84,VALID,0,VALID,104,VALID,0,VALID,23.5186,VALID,354,VALID,0,
2011-05-08, 03:27:04,VALID,1007.85,VALID,0,VALID,104,VALID,0,VALID,23.4992,VALID,354,VALID,0,
2011-05-08, 03:28:04,VALID,1007.86,VALID,0,VALID,104,VALID,0,VALID,23.5186,VALID,354,VALID,0,
2011-05-08, 03:29:04,VALID,1007.89,VALID,0,VALID,104,VALID,0,VALID,23.4974,VALID,354,VALID,0,
2011-05-08, 03:30:04,VALID,1007.89,VALID,0,VALID,104,VALID,0,VALID,23.5186,VALID,354,VALID,0,
2011-05-08, 03:31:04,VALID,1007.89,VALID,0,VALID,104,VALID,0,VALID,23.5186,VALID,354,VALID,0,
2011-05-08, 03:32:04,VALID,1007.9,VALID,0,VALID,104,VALID,0,VALID,23.5186,VALID,354,VALID,0,
2011-05-08, 03:33:04,VALID,1007.9,VALID,0,VALID,104,VALID,0,VALID,23.5186,VALID,354,VALID,0,
2011-05-08, 03:34:04,VALID,1007.92,VALID,0,VALID,104,VALID,0,VALID,23.5363,VALID,354,VALID,0,
2011-05-08, 03:35:04,VALID,1007.93,VALID,0,VALID,104,VALID,0,VALID,23.5381,VALID,354,VALID,0,
2011-05-08, 03:36:04,VALID,1007.95,VALID,0,VALID,104,VALID,0,VALID,23.5381,VALID,354,VALID,0,
2011-05-08, 03:37:04,VALID,1007.93,VALID,0,VALID,104,VALID,0,VALID,23.5381,VALID,354,VALID,0,
2011-05-08, 03:38:04,VALID,1007.97,VALID,0,VALID,104,VALID,0,VALID,23.5381,VALID,354,VALID,0,
2011-05-08, 03:39:04,VALID,1007.97,VALID,0,VALID,104,VALID,0,VALID,23.5576,VALID,354,VALID,0,
2011-05-08, 03:40:04,VALID,1007.95,VALID,0,VALID,104,VALID,0,VALID,23.5381,VALID,354,VALID,0,
2011-05-08, 03:41:04,VALID,1007.97,VALID,0,VALID,104,VALID,0,VALID,23.5169,VALID,354,VALID,0,
2011-05-08, 03:42:04,VALID,1007.95,VALID,0,VALID,104,VALID,0,VALID,23.5381,VALID,354,VALID,0,
2011-05-08, 03:43:04,VALID,1007.97,VALID,0,VALID,104,VALID,0,VALID,23.5363,VALID,354,VALID,0,
2011-05-08, 03:44:04,VALID,1007.99,VALID,0,VALID,104,VALID,0,VALID,23.5381,VALID,354,VALID,0,
2011-05-08, 03:45:04,VALID,1007.99,VALID,0,VALID,104,VALID,0,VALID,23.5381,VALID,354,VALID,0,
2011-05-08, 03:46:04,VALID,1007.96,VALID,0,VALID,104,VALID,0,VALID,23.5381,VALID,354,VALID,0,
2011-05-08, 03:47:04,VALID,1007.98,VALID,0,VALID,104,VALID,0,VALID,23.5594,VALID,354,VALID,0,
2011-05-08, 03:48:04,VALID,1007.98,VALID,0,VALID,104,VALID,0,VALID,23.5381,VALID,354,VALID,0,
2011-05-08, 03:49:04,VALID,1007.99,VALID,0,VALID,104,VALID,0,VALID,23.5169,VALID,354,VALID,0,
2011-05-08, 03:50:04,VALID,1007.97,VALID,0,VALID,104,VALID,0,VALID,23.5381,VALID,354,VALID,0,
2011-05-08, 03:51:04,VALID,1008.01,VALID,0,VALID,104,VALID,0,VALID,23.5381,VALID,354,VALID,0,
2011-05-08, 03:52:04,VALID,1008.01,VALID,0,VALID,104,VALID,0,VALID,23.5381,VALID,354,VALID,0,
2011-05-08, 03:53:04,VALID,1008,VALID,0,VALID,104,VALID,0,VALID,23.5381,VALID,354,VALID,0,
2011-05-08, 03:54:04,VALID,1007.98,VALID,0,VALID,104,VALID,0,VALID,23.5186,VALID,354,VALID,0,
2011-05-08, 03:55:04,VALID,1008.02,VALID,0,VALID,104,VALID,0.105969,VALID,23.5363,VALID,354,VALID,0,
2011-05-08, 03:56:04,VALID,1008.05,VALID,0,VALID,104,VALID,0.105969,VALID,23.5169,VALID,354,VALID,0,
2011-05-08, 03:57:04,VALID,1008.05,VALID,0,VALID,104,VALID,0.105969,VALID,23.5363,VALID,354,VALID,0,
2011-05-08, 03:58:04,VALID,1008.03,VALID,0,VALID,104,VALID,0.105969,VALID,23.5169,VALID,354,VALID,0,
2011-05-08, 03:59:04,VALID,1008.02,VALID,0,VALID,104,VALID,0,VALID,23.5363,VALID,354,VALID,0,
2011-05-08, 04:00:04,VALID,1008.03,VALID,0,VALID,104,VALID,0,VALID,23.5363,VALID,354,VALID,0,
2011-05-08, 04:01:04,VALID,1008.01,VALID,0,VALID,104,VALID,0,VALID,23.5363,VALID,354,VALID,0,
2011-05-08, 04:02:04,VALID,1008,VALID,0,VALID,104,VALID,0,VALID,23.5363,VALID,354,VALID,0,
2011-05-08, 04:03:04,VALID,1008.01,VALID,0,VALID,104,VALID,0,VALID,23.5169,VALID,354,VALID,0,
2011-05-08, 04:04:04,VALID,1008.01,VALID,0,VALID,104,VALID,0.105969,VALID,23.5169,VALID,354,VALID,0,
2011-05-08, 04:05:04,VALID,1007.98,VALID,0,VALID,104,VALID,0.105969,VALID,23.5363,VALID,354,VALID,0,